This is the latest recevied weather packets stored in our database for station/object W1GK. If no packets are shown the sender has not sent any weather packets the latest 10 day(s).
| Time | Temp. | Humidity | Pressure | Rain* | Wind** | Luminosity | Snow |
|---|---|---|---|---|---|---|---|
| 1787873396 | 42.22° C | 13% | 1011.5 hPa | 0 mm | - | 573 W/m² | - |
| 1787872795 | 41.67° C | 12% | 1011.5 hPa | 0 mm | - | 258 W/m² | - |
| 1787872197 | 41.67° C | 12% | 1011.7 hPa | 0 mm | - | 204 W/m² | - |
| 1787871596 | 41.67° C | 11% | 1011.7 hPa | 0 mm | - | 221 W/m² | - |
| 1787870998 | 42.22° C | 11% | 1011.8 hPa | 0 mm | - | 269 W/m² | - |
| 1787870398 | 42.22° C | 11% | 1011.7 hPa | 0 mm | - | 248 W/m² | - |
| 1787869798 | 42.78° C | 11% | 1011.9 hPa | 0 mm | - | 301 W/m² | - |
| 1787869197 | 42.78° C | 11% | 1012.1 hPa | 0 mm | - | 294 W/m² | - |
| 1787868597 | 43.33° C | 11% | 1012.4 hPa | 0 mm | - | 318 W/m² | - |
| 1787867999 | 43.89° C | 10% | 1012.4 hPa | 0 mm | - | 285 W/m² | - |
| 1787867397 | 43.89° C | 10% | 1012.4 hPa | 0 mm | - | 294 W/m² | - |
| 1787866795 | 43.33° C | 12% | 1012.6 hPa | 0 mm | - | 608 W/m² | - |
| 1787866197 | 42.22° C | 12% | 1012.6 hPa | 0 mm | - | 740 W/m² | - |
| 1787865596 | 41.67° C | 12% | 1013.1 hPa | 0 mm | - | 244 W/m² | - |
| 1787864996 | 42.22° C | 12% | 1013.1 hPa | 0 mm | - | 183 W/m² | - |
| 1787864398 | 42.22° C | 12% | 1013.1 hPa | 0 mm | - | 258 W/m² | - |
| 1787863795 | 42.78° C | 12% | 1013.3 hPa | 0 mm | - | 257 W/m² | - |
| 1787863196 | 42.78° C | 12% | 1013.4 hPa | 0 mm | - | 341 W/m² | - |
| 1787862596 | 42.78° C | 12% | 1013.6 hPa | 0 mm | - | 399 W/m² | - |
| 1787861998 | 42.78° C | 12% | 1013.6 hPa | 0 mm | - | 315 W/m² | - |
| 1787861396 | 43.33° C | 12% | 1013.7 hPa | 0 mm | - | 443 W/m² | - |
| 1787860796 | 42.78° C | 12% | 1013.9 hPa | 0 mm | - | 381 W/m² | - |
| 1787860195 | 43.33° C | 12% | 1013.9 hPa | 0 mm | - | 329 W/m² | - |
| 1787859595 | 43.33° C | 11% | 1014.1 hPa | 0 mm | - | 693 W/m² | - |
| 1787858996 | 42.78° C | 12% | 1014.3 hPa | 0 mm | - | 1151 W/m² | - |
* Rain latest hour (hover to see other rain measurements)
** Current wind speed in m/s (hover to see current wind gust speed)